N8289A KPDK-KPDK

Flight info

Callsign N8289A
Flight time 0h 21m
Altitude 2500
Route DCT
Aircraft P28A/L-SFG/C

Departure

Time 2026-04-22 03:03
Airport DeKalb Peachtree Airport (KPDK)

Arrival

Time 2026-04-22 03:25
Airport DeKalb Peachtree Airport (KPDK)
Time Latitude Longitude Altitude Speed Heading
2026-04-22 02:50 33.87885 -84.30509 974 ft 0 kts 158°
2026-04-22 02:58 33.87875 -84.30503 986 ft 3 kts 154°
2026-04-22 02:58 33.87865 -84.30460 980 ft 8 kts 72°
2026-04-22 02:58 33.87868 -84.30425 972 ft 4 kts 118°
2026-04-22 02:59 33.87835 -84.30402 977 ft 8 kts 158°
2026-04-22 02:59 33.87772 -84.30370 977 ft 12 kts 158°
2026-04-22 02:59 33.87690 -84.30330 973 ft 13 kts 154°
2026-04-22 02:59 33.87615 -84.30327 976 ft 10 kts 199°
2026-04-22 03:00 33.87547 -84.30366 977 ft 12 kts 200°
2026-04-22 03:00 33.87462 -84.30395 982 ft 13 kts 196°
2026-04-22 03:00 33.87370 -84.30435 984 ft 14 kts 200°
2026-04-22 03:00 33.87272 -84.30479 986 ft 16 kts 200°
2026-04-22 03:01 33.87158 -84.30530 979 ft 18 kts 199°
2026-04-22 03:01 33.87036 -84.30586 981 ft 18 kts 200°
2026-04-22 03:01 33.86954 -84.30617 979 ft 9 kts 177°
2026-04-22 03:01 33.86924 -84.30584 978 ft 2 kts 103°
2026-04-22 03:02 33.86920 -84.30549 978 ft 6 kts 70°
2026-04-22 03:02 33.86996 -84.30513 979 ft 33 kts 20°
2026-04-22 03:02 33.87386 -84.30340 1015 ft 77 kts 18°
2026-04-22 03:02 33.87913 -84.30080 1202 ft 87 kts 23°
2026-04-22 03:03 33.88486 -84.29770 1349 ft 92 kts 25°
2026-04-22 03:03 33.89081 -84.29442 1474 ft 96 kts 25°
2026-04-22 03:03 33.89689 -84.29092 1603 ft 98 kts 28°
2026-04-22 03:03 33.90322 -84.28739 1697 ft 102 kts 21°
2026-04-22 03:04 33.91022 -84.28774 1772 ft 108 kts 336°
2026-04-22 03:04 33.91605 -84.29296 1917 ft 103 kts 309°
2026-04-22 03:04 33.91983 -84.30028 2011 ft 103 kts 290°
2026-04-22 03:04 33.92272 -84.30805 2031 ft 101 kts 284°
2026-04-22 03:05 33.92447 -84.31595 2003 ft 96 kts 261°
2026-04-22 03:05 33.92192 -84.32263 2007 ft 85 kts 217°
2026-04-22 03:05 33.91664 -84.32587 1981 ft 84 kts 200°
2026-04-22 03:05 33.91145 -84.32884 1973 ft 84 kts 201°
2026-04-22 03:06 33.90607 -84.33156 1982 ft 83 kts 198°
2026-04-22 03:06 33.90075 -84.33406 2002 ft 82 kts 198°
2026-04-22 03:06 33.89558 -84.33680 1991 ft 80 kts 200°
2026-04-22 03:06 33.89036 -84.33943 1948 ft 83 kts 198°
2026-04-22 03:07 33.88487 -84.34171 1925 ft 84 kts 195°
2026-04-22 03:07 33.87940 -84.34386 1927 ft 83 kts 195°
2026-04-22 03:07 33.87386 -84.34612 1892 ft 83 kts 197°
2026-04-22 03:07 33.86865 -84.34744 1720 ft 73 kts 176°
2026-04-22 03:08 33.86422 -84.34486 1564 ft 69 kts 136°
2026-04-22 03:08 33.86170 -84.33984 1458 ft 69 kts 113°
2026-04-22 03:08 33.86025 -84.33436 1378 ft 73 kts 105°
2026-04-22 03:08 33.85913 -84.32820 1304 ft 76 kts 101°
2026-04-22 03:09 33.85810 -84.32205 1269 ft 74 kts 99°
2026-04-22 03:09 33.85720 -84.31598 1249 ft 72 kts 98°
2026-04-22 03:09 33.85859 -84.31064 1183 ft 69 kts 41°
2026-04-22 03:09 33.86292 -84.30832 1108 ft 67 kts 19°
2026-04-22 03:10 33.86728 -84.30636 1032 ft 67 kts 19°
2026-04-22 03:10 33.87139 -84.30447 977 ft 54 kts 20°
2026-04-22 03:10 33.87503 -84.30289 994 ft 65 kts 22°
2026-04-22 03:10 33.87936 -84.30079 1075 ft 70 kts 21°
2026-04-22 03:11 33.88426 -84.29855 1275 ft 74 kts 19°
2026-04-22 03:11 33.88929 -84.29650 1463 ft 78 kts 19°
2026-04-22 03:11 33.89469 -84.29437 1627 ft 85 kts 18°
2026-04-22 03:11 33.90051 -84.29343 1812 ft 90 kts 345°
2026-04-22 03:12 33.90535 -84.29807 1991 ft 89 kts 296°
2026-04-22 03:12 33.91153 -84.31098 2151 ft 89 kts 287°
2026-04-22 03:12 33.91396 -84.31785 2189 ft 88 kts 271°
2026-04-22 03:13 33.91151 -84.32353 2227 ft 76 kts 203°
2026-04-22 03:13 33.90673 -84.32613 2259 ft 77 kts 200°
2026-04-22 03:13 33.90162 -84.32860 2244 ft 81 kts 198°
2026-04-22 03:13 33.89608 -84.33087 2200 ft 85 kts 194°
2026-04-22 03:14 33.89044 -84.33320 2133 ft 88 kts 194°
2026-04-22 03:14 33.88471 -84.33546 2109 ft 86 kts 197°
2026-04-22 03:14 33.87896 -84.33813 2055 ft 88 kts 198°
2026-04-22 03:14 33.87341 -84.34117 2025 ft 87 kts 201°
2026-04-22 03:15 33.86779 -84.34412 1883 ft 91 kts 202°
2026-04-22 03:15 33.86154 -84.34475 1729 ft 93 kts 161°
2026-04-22 03:15 33.85758 -84.33873 1621 ft 95 kts 107°
2026-04-22 03:15 33.85621 -84.33121 1522 ft 86 kts 104°
2026-04-22 03:16 33.85508 -84.32434 1419 ft 82 kts 104°
2026-04-22 03:16 33.85386 -84.31789 1355 ft 80 kts 103°
2026-04-22 03:16 33.85567 -84.31212 1273 ft 78 kts 36°
2026-04-22 03:16 33.86037 -84.30958 1194 ft 72 kts 22°
2026-04-22 03:17 33.86492 -84.30743 1109 ft 68 kts 21°
2026-04-22 03:17 33.86933 -84.30542 1013 ft 67 kts 21°
2026-04-22 03:17 33.87313 -84.30374 977 ft 54 kts 21°
2026-04-22 03:17 33.87776 -84.30170 1035 ft 80 kts 19°
2026-04-22 03:18 33.88310 -84.29947 1210 ft 84 kts 19°
2026-04-22 03:18 33.88856 -84.29707 1417 ft 85 kts 21°
2026-04-22 03:18 33.89428 -84.29437 1552 ft 93 kts 21°
2026-04-22 03:18 33.90052 -84.29188 1721 ft 96 kts 13°
2026-04-22 03:19 33.90702 -84.29338 1860 ft 99 kts 326°
2026-04-22 03:19 33.91153 -84.29950 2018 ft 97 kts 294°
2026-04-22 03:19 33.91494 -84.30661 2072 ft 99 kts 291°
2026-04-22 03:19 33.91827 -84.31398 2082 ft 98 kts 287°
2026-04-22 03:20 33.91821 -84.32150 2083 ft 87 kts 235°
2026-04-22 03:20 33.91349 -84.32559 2048 ft 83 kts 201°
2026-04-22 03:20 33.90826 -84.32865 2029 ft 86 kts 201°
2026-04-22 03:20 33.90285 -84.33176 2037 ft 84 kts 202°
2026-04-22 03:21 33.89770 -84.33490 2017 ft 86 kts 204°
2026-04-22 03:21 33.89252 -84.33829 1998 ft 84 kts 205°
2026-04-22 03:21 33.88732 -84.34187 1946 ft 87 kts 205°
2026-04-22 03:21 33.88203 -84.34523 1957 ft 86 kts 203°
2026-04-22 03:22 33.87670 -84.34865 1957 ft 87 kts 204°
2026-04-22 03:22 33.87144 -84.35189 1986 ft 83 kts 196°
2026-04-22 03:22 33.86564 -84.35081 1839 ft 87 kts 148°
2026-04-22 03:22 33.86306 -84.34461 1632 ft 87 kts 104°
2026-04-22 03:23 33.86153 -84.33806 1557 ft 78 kts 111°
2026-04-22 03:23 33.85970 -84.33197 1509 ft 76 kts 111°
2026-04-22 03:23 33.85785 -84.32594 1471 ft 75 kts 112°
2026-04-22 03:23 33.85616 -84.32002 1435 ft 76 kts 102°
2026-04-22 03:24 33.85708 -84.31382 1390 ft 73 kts 64°
2026-04-22 03:24 33.86070 -84.30992 1292 ft 69 kts 30°
2026-04-22 03:24 33.86503 -84.30740 1142 ft 69 kts 20°
2026-04-22 03:24 33.86951 -84.30532 1008 ft 67 kts 20°
2026-04-22 03:25 33.87321 -84.30369 977 ft 45 kts 20°
2026-04-22 03:25 33.87554 -84.30265 976 ft 14 kts 359°
2026-04-22 03:25 33.87629 -84.30299 976 ft 7 kts 336°
2026-04-22 03:25 33.87646 -84.30307 977 ft 7 kts 339°
2026-04-22 03:26 33.87732 -84.30350 974 ft 19 kts 338°
2026-04-22 03:26 33.87858 -84.30413 975 ft 9 kts 336°
2026-04-22 03:26 33.87868 -84.30458 975 ft 5 kts 248°
2026-04-22 03:26 33.87859 -84.30496 978 ft 4 kts 269°
2026-04-22 03:27 33.87879 -84.30521 978 ft 6 kts 358°
2026-04-22 03:27 33.87886 -84.30499 979 ft 0 kts 137°